Location: Unspecified
(39.1833°N, 0.0000°E)
Time: 05:45:56
(UTC+00:00)

LightSail 2 - Visible Passes

Search period start: 12 November 2019 00:00
Search period end: 22 November 2019 00:00
Orbit: 701 x 726 km, 24.0° (Epoch: 11 November)

Date Brightness Start Highest point End Pass type
(mag) Time Alt. Az. Time Alt. Az. Time Alt. Az.
12 Nov 7.5 04:17:27 12° S 04:18:06 13° S 04:20:21 10° SE visible
12 Nov 7.5 06:00:04 10° SW 06:02:48 14° S 06:05:33 10° SSE visible
13 Nov 7.4 05:02:21 10° SSW 05:05:10 15° S 05:07:58 10° SSE visible
14 Nov 7.4 04:08:04 14° S 04:08:04 14° S 04:10:14 10° SE visible
14 Nov 7.5 05:49:58 10° SW 05:52:12 13° S 05:54:27 10° SSE visible
15 Nov 7.3 04:52:48 12° SSW 04:54:33 14° S 04:57:09 10° SSE visible
16 Nov 7.6 03:58:32 13° SSE 03:58:32 13° SSE 03:59:38 10° SSE visible
16 Nov 7.7 05:41:22 10° SSW 05:41:33 10° SSW 05:41:44 10° SSW visible
17 Nov 7.4 04:43:15 12° SSW 04:43:53 12° S 04:45:42 10° S visible
